(185051) = 1995 SU56 = 2006 RV7

Discovered at Catalina on 2006-09-12 by CSS.

Orbit

Orbit type: Main Belt

Note: WebGL enabled browser required.

epoch2024-03-31.0
epoch JD2460400.5
perihelion date2025-06-15.42387
perihelion JD2460841.92387
argument of perihelion (°)229.66620
ascending node (°)173.74411
inclination (°)2.06167
eccentricity0.1896374
perihelion distance (AU)1.9290666
Tisserand w.r.t. Jupiter3.5
ΔV w.r.t. Earth (km/sec)8.7
semimajor axis (AU)2.3804979
mean anomaly (°)241.54376
mean daily motion (°/day)0.26835030
aphelion distance (AU)2.832
period (years)3.67
P-vector [x]0.72639720
P-vector [y]0.64096883
P-vector [z]0.24800416
Q-vector [x]-0.68726395
Q-vector [y]0.67538569
Q-vector [z]0.26743678
absolute magnitude17.66
phase slope0.15
uncertainty0
referenceMPEC 2024-C115
observations used312
oppositions15
arc length (days)10129
first opposition used1995
last opposition used2023
residual rms (arc-secs)0.79
perturbers coarse indicatorM-v
perturbers precise indicator003Ek
first observation date used1995-08-20.0
last observation date used2023-05-14.0
computer nameMPCLINUX
JD of orbit computation2456494.372275
perihelion JD uncertainty (days)5.1766E-05
argument of perihelion uncertainty (°)1.2711E-04
ascending node uncertainty (°)1.2624E-04
inclination uncertainty (°)5.0056E-06
eccentricity uncertainty 4.1818E-08
perihelion distance uncertainty (AU)9.8100E-08
Minimum Orbit Intersection Distances (in AU)
for orbit epoch: 2460200.5, reference: E2024-CB5
Mercury1.60845
Venus1.20617
Earth0.9379
Mars0.44812
Jupiter2.56357
Saturn6.84113
Uranus15.7751
Neptune27.8165

Observations

321 total observations over interval: 1995 08 20.22326 – 2023 05 14.299480
These data are available for download (format description).

Date (UT) J2000 RA J2000 Dec Magn Location Ref
1995 08 20.22326 23 41 36.01 -01 09 13.6 20.3 V 809 – European Southern Observatory, La Silla MPS 239468
1995 09 17.26705 23 21 30.44 -03 58 43.7 19.8 V 691 – Steward Observatory, Kitt Peak-Spacewatch MPS 32127
1995 09 17.28807 23 21 29.32 -03 58 52.2   691 – Steward Observatory, Kitt Peak-Spacewatch MPS 32127
1995 09 17.30891 23 21 28.18 -03 59 01.5   691 – Steward Observatory, Kitt Peak-Spacewatch MPS 32127
1995 09 18.39163 23 20 32.61 -04 06 38.6 19.9 V 691 – Steward Observatory, Kitt Peak-Spacewatch MPS 32127
1995 09 18.39936 23 20 32.19 -04 06 42.2 20.1 V 691 – Steward Observatory, Kitt Peak-Spacewatch MPS 32127
1995 09 18.40685 23 20 31.76 -04 06 45.5 19.2 V 691 – Steward Observatory, Kitt Peak-Spacewatch MPS 32127
1999 12 07.25666 04 15 46.22 +17 14 36.7 20.2   704 – Lincoln Laboratory ETS, New Mexico MPS 213773
1999 12 07.27122 04 15 45.44 +17 14 35.6 19.8   704 – Lincoln Laboratory ETS, New Mexico MPS 213773
1999 12 07.28574 04 15 44.54 +17 14 33.9 19.9   704 – Lincoln Laboratory ETS, New Mexico MPS 213773
2000 01 10.09836 04 00 28.11 +17 06 50.5 20.2 V 691 – Steward Observatory, Kitt Peak-Spacewatch MPS 190530
2000 01 10.12056 04 00 28.22 +17 06 53.2 20.3 V 691 – Steward Observatory, Kitt Peak-Spacewatch MPS 190530
2000 01 10.14252 04 00 28.36 +17 06 55.9 20.4 V 691 – Steward Observatory, Kitt Peak-Spacewatch MPS 190530
2004 02 14.13632 08 28 30.12 +16 43 22.5 21.5 V 691 – Steward Observatory, Kitt Peak-Spacewatch MPS 190530
2004 02 14.16334 08 28 28.70 +16 43 29.8 21.5 V 691 – Steward Observatory, Kitt Peak-Spacewatch MPS 190530
2004 02 14.19047 08 28 27.27 +16 43 36.9 21.2 V 691 – Steward Observatory, Kitt Peak-Spacewatch MPS 190530
2006 08 19.39999 23 27 42.80 -02 29 01.1 20.4 V 691 – Steward Observatory, Kitt Peak-Spacewatch MPS 190530
2006 08 19.41855 23 27 42.19 -02 29 06.1 20.4 V 691 – Steward Observatory, Kitt Peak-Spacewatch MPS 190530
2006 08 19.43593 23 27 41.62 -02 29 10.7 20.2 V 691 – Steward Observatory, Kitt Peak-Spacewatch MPS 190530
2006 09 12.35146 23 09 51.55 -04 55 22.0 19.1 V 703 – Catalina Sky Survey MPS 179481
2006 09 12.35624 23 09 51.22 -04 55 24.7 19.9 V 703 – Catalina Sky Survey MPS 179481
2006 09 12.36103 23 09 50.90 -04 55 26.1 19.5 V 703 – Catalina Sky Survey MPS 179481
2006 09 12.36584 23 09 50.68 -04 55 28.3 20.3 V 703 – Catalina Sky Survey MPS 179481
2006 09 13.24601 23 09 05.53 -05 01 37.7 19.2 R 644 – Palomar Mountain/NEAT MPS 179481
2006 09 13.27176 23 09 04.13 -05 01 48.8 19.6 R 644 – Palomar Mountain/NEAT MPS 179481
2006 09 13.30209 23 09 02.44 -05 02 01.5 19.3 R 644 – Palomar Mountain/NEAT MPS 179481
2006 09 25.26853 22 59 16.36 -06 22 13.2 19.9 V G96 – Mt. Lemmon Survey MPS 190530
2006 09 25.27517 22 59 16.08 -06 22 15.9 19.7 V G96 – Mt. Lemmon Survey MPS 190530
2006 09 25.28189 22 59 15.72 -06 22 18.3 19.8 V G96 – Mt. Lemmon Survey MPS 190530
2006 09 25.28852 22 59 15.43 -06 22 20.9 19.8 V G96 – Mt. Lemmon Survey MPS 190530
2006 11 15.10227 22 59 53.59 -07 21 14.1 20.6 V G96 – Mt. Lemmon Survey MPS 190530
2006 11 15.10888 22 59 53.88 -07 21 11.9 20.5 V G96 – Mt. Lemmon Survey MPS 190530
2006 11 15.11556 22 59 54.20 -07 21 11.1 21.2 V G96 – Mt. Lemmon Survey MPS 190530
2006 11 15.12222 22 59 54.52 -07 21 09.1 21.3 V G96 – Mt. Lemmon Survey MPS 190530
2008 02 08.45694 11 47 15.74 +00 44 09.6 21.3 V 691 – Steward Observatory, Kitt Peak-Spacewatch MPS 236296
2008 02 08.47453 11 47 15.17 +00 44 13.7 20.8 V 691 – Steward Observatory, Kitt Peak-Spacewatch MPS 236296
2008 02 08.48977 11 47 14.69 +00 44 17.6 21.3 V 691 – Steward Observatory, Kitt Peak-Spacewatch MPS 236296
2008 03 25.17594 11 09 33.47 +05 21 59.1 20.9 V 691 – Steward Observatory, Kitt Peak-Spacewatch MPS 244051
2008 03 25.18932 11 09 32.80 +05 22 03.1 21.2 V 691 – Steward Observatory, Kitt Peak-Spacewatch MPS 244051
2008 03 25.20270 11 09 32.15 +05 22 08.8 21.0 V 691 – Steward Observatory, Kitt Peak-Spacewatch MPS 244051
2008 03 27.18073 11 07 59.49 +05 33 27.4 21.1 V 691 – Steward Observatory, Kitt Peak-Spacewatch MPS 244051
2008 03 27.19996 11 07 58.58 +05 33 34.0 21.1 V 691 – Steward Observatory, Kitt Peak-Spacewatch MPS 244051
2008 03 27.21917 11 07 57.66 +05 33 40.2 21.2 V 691 – Steward Observatory, Kitt Peak-Spacewatch MPS 244051
2008 04 04.19521 11 02 30.49 +06 13 58.7 21.2 V 691 – Steward Observatory, Kitt Peak-Spacewatch MPS 244739
2008 04 04.21177 11 02 29.87 +06 14 03.5 21.1 V 691 – Steward Observatory, Kitt Peak-Spacewatch MPS 244739
2008 04 04.22279 11 02 29.43 +06 14 06.2 21.2 V 691 – Steward Observatory, Kitt Peak-Spacewatch MPS 244739
2008 04 06.13870 11 01 23.48 +06 22 23.1 21.2 V 691 – Steward Observatory, Kitt Peak-Spacewatch MPS 245781
2008 04 06.15264 11 01 23.01 +06 22 26.9 21.0 V 691 – Steward Observatory, Kitt Peak-Spacewatch MPS 245781
2008 04 06.16363 11 01 22.61 +06 22 29.0 21.1 V 691 – Steward Observatory, Kitt Peak-Spacewatch MPS 245781
2010 09 05.46478 03 59 22.27 +18 53 12.4 20.6 V G96 – Mt. Lemmon Survey MPS 347797
2010 09 05.47627 03 59 23.17 +18 53 14.1 20.6 V G96 – Mt. Lemmon Survey MPS 347797
2010 09 05.48211 03 59 23.64 +18 53 14.8 20.5 V G96 – Mt. Lemmon Survey MPS 347797
2010 11 05.29132 04 26 45.88 +18 08 32.8 19.8   704 – Lincoln Laboratory ETS, New Mexico MPS 357189
2010 11 05.30388 04 26 45.44 +18 08 30.9 19.9   704 – Lincoln Laboratory ETS, New Mexico MPS 357189
2010 11 05.32928 04 26 44.38 +18 08 26.6 19.5   704 – Lincoln Laboratory ETS, New Mexico MPS 357189
2010 11 05.34181 04 26 43.75 +18 08 24.2 19.8   704 – Lincoln Laboratory ETS, New Mexico MPS 357189
2010 11 07.33070 04 25 23.12 +18 02 05.3 19.2 R G92 – Jarnac Observatory, Vail MPS 357189
2010 11 07.34648 04 25 22.46 +18 01 58.9 19.8 R G92 – Jarnac Observatory, Vail MPS 357189
2010 11 07.36229 04 25 21.75 +18 01 54.8 20.1 R G92 – Jarnac Observatory, Vail MPS 357189
2010 11 08.27351 04 24 42.60 +17 58 59.6 19.8 V 691 – Steward Observatory, Kitt Peak-Spacewatch MPS 357189
2010 11 08.29119 04 24 41.75 +17 58 56.4 19.7 V 691 – Steward Observatory, Kitt Peak-Spacewatch MPS 357189
2010 11 08.30888 04 24 40.93 +17 58 52.9 19.6 V 691 – Steward Observatory, Kitt Peak-Spacewatch MPS 357189
2010 11 10.27879 04 23 11.00 +17 52 24.2 19.7 V 291 – LPL/Spacewatch II MPS 357189
2010 11 10.28262 04 23 10.80 +17 52 23.5 19.6 V 291 – LPL/Spacewatch II MPS 357189
2010 11 10.28753 04 23 10.55 +17 52 22.5 19.7 V 291 – LPL/Spacewatch II MPS 357189
2010 11 10.33372 04 23 08.22 +17 52 13.5 19.0   704 – Lincoln Laboratory ETS, New Mexico MPS 357189
2010 11 10.34645 04 23 07.56 +17 52 10.8 19.6   704 – Lincoln Laboratory ETS, New Mexico MPS 357189
2010 11 10.35921 04 23 06.97 +17 52 08.2 19.2   704 – Lincoln Laboratory ETS, New Mexico MPS 357189
2010 11 10.37210 04 23 06.31 +17 52 06.2 19.2   704 – Lincoln Laboratory ETS, New Mexico MPS 357189
2010 11 10.38487 04 23 05.62 +17 52 02.6 19.7   704 – Lincoln Laboratory ETS, New Mexico MPS 357189
2010 11 12.26756 04 21 34.22 +17 45 45.7 19.7 V 691 – Steward Observatory, Kitt Peak-Spacewatch MPS 357189
2010 11 12.28526 04 21 33.26 +17 45 42.3 19.7 V 691 – Steward Observatory, Kitt Peak-Spacewatch MPS 357189
2010 11 12.30297 04 21 32.32 +17 45 38.8 19.6 V 691 – Steward Observatory, Kitt Peak-Spacewatch MPS 357189
2010 11 26.37774 04 08 19.68 +16 58 50.9 18.9 V G96 – Mt. Lemmon Survey MPS 358596
2010 11 26.38464 04 08 19.24 +16 58 49.4 18.7 V G96 – Mt. Lemmon Survey MPS 358596
2010 11 26.39152 04 08 18.81 +16 58 48.1 18.9 V G96 – Mt. Lemmon Survey MPS 358596
2010 11 26.39849 04 08 18.38 +16 58 46.5 18.6 V G96 – Mt. Lemmon Survey MPS 358596
2010 12 03.26987 04 01 42.23 +16 38 52.6 19.3   704 – Lincoln Laboratory ETS, New Mexico MPS 362360
2010 12 03.28315 04 01 41.40 +16 38 50.7 19.9   704 – Lincoln Laboratory ETS, New Mexico MPS 362360
2010 12 03.29642 04 01 40.68 +16 38 48.0 19.6   704 – Lincoln Laboratory ETS, New Mexico MPS 362360
2010 12 03.30969 04 01 39.94 +16 38 46.1 19.7   704 – Lincoln Laboratory ETS, New Mexico MPS 362360
2010 12 03.32352 04 01 39.14 +16 38 44.3 19.6   704 – Lincoln Laboratory ETS, New Mexico MPS 362360
2010 12 09.06027 03 56 39.10 +16 25 19.8 19.6 R H15 – ISON-NM Observatory, Mayhill MPS 362360
2010 12 09.07374 03 56 38.43 +16 25 17.7 19.7 R H15 – ISON-NM Observatory, Mayhill MPS 362360
